{"data":{"norad_id":60905,"epoch":"2026-05-25T04:17:09.876192Z","epoch_age_seconds":56233,"freshness":"FRESH","line1":"1 60905U 24154C   26145.17858653  .00004458  00000+0  41658-4 0  9995","line2":"2 60905  53.1583 114.5103 0000933  74.1081 286.0039 15.69692977100525","mean_motion":15.69692977,"eccentricity":9.33e-5,"inclination_deg":53.1583,"raan_deg":114.5103,"arg_perigee_deg":74.1081,"mean_anomaly_deg":286.0039,"bstar":4.1658e-5,"rev_number":10052,"period_min":91.737685082348,"perigee_km":359.14681693705,"apogee_km":360.40411140287,"semimajor_km":6737.91246417,"source":"CELESTRAK","updated_at":"2026-05-25T13:38:19.312343Z"}}